TimeEST,TemperatureF,Dew PointF,Humidity,Sea Level PressureIn,VisibilityMPH,Wind Direction,Wind SpeedMPH,Gust SpeedMPH,PrecipitationIn,Events,Conditions,WindDirDegrees,DateUTC
12:53 AM,7.0,-2.9,64,30.39,10.0,SW,15.0,-,N/A,,Clear,230,2014-02-08 05:53:00
1:53 AM,7.0,-2.9,64,30.38,10.0,SW,11.5,-,N/A,,Clear,230,2014-02-08 06:53:00
2:53 AM,7.0,-2.9,64,30.39,10.0,SW,11.5,-,N/A,,Clear,220,2014-02-08 07:53:00
3:53 AM,6.1,-2.9,67,30.39,10.0,SSW,11.5,-,N/A,,Clear,210,2014-02-08 08:53:00
4:53 AM,7.0,-2.9,64,30.38,10.0,SW,9.2,-,N/A,,Clear,220,2014-02-08 09:53:00
5:53 AM,7.0,-2.0,67,30.36,10.0,SW,8.1,-,N/A,,Clear,220,2014-02-08 10:53:00
6:53 AM,7.0,-2.0,67,30.37,10.0,South,4.6,-,N/A,,Clear,190,2014-02-08 11:53:00
7:53 AM,8.1,-0.9,67,30.38,10.0,South,6.9,-,N/A,,Overcast,180,2014-02-08 12:53:00
8:53 AM,8.1,-0.9,67,30.38,10.0,South,6.9,-,N/A,,Scattered Clouds,180,2014-02-08 13:53:00
9:53 AM,10.0,-0.0,64,30.36,10.0,Calm,Calm,-,N/A,,Clear,0,2014-02-08 14:53:00
10:53 AM,12.0,1.9,64,30.36,10.0,West,4.6,-,N/A,,Partly Cloudy,260,2014-02-08 15:53:00
11:53 AM,12.9,3.9,67,30.34,10.0,West,3.5,-,N/A,,Scattered Clouds,270,2014-02-08 16:53:00
12:53 PM,16.0,3.9,59,30.30,9.0,SSW,8.1,-,N/A,,Clear,200,2014-02-08 17:53:00
1:53 PM,18.0,1.0,48,30.29,10.0,SW,8.1,-,N/A,,Clear,230,2014-02-08 18:53:00
2:53 PM,18.0,-0.0,45,30.27,10.0,WSW,8.1,-,N/A,,Mostly Cloudy,240,2014-02-08 19:53:00
3:53 PM,18.0,6.1,60,30.27,10.0,NW,6.9,-,N/A,,Overcast,310,2014-02-08 20:53:00
4:53 PM,18.0,6.1,60,30.25,10.0,Calm,Calm,-,N/A,,Overcast,0,2014-02-08 21:53:00
5:53 PM,18.0,6.1,60,30.24,10.0,Calm,Calm,-,N/A,,Overcast,0,2014-02-08 22:53:00
6:53 PM,18.0,6.1,60,30.25,10.0,Calm,Calm,-,N/A,,Overcast,0,2014-02-08 23:53:00
7:53 PM,19.0,7.0,59,30.25,10.0,Calm,Calm,-,N/A,,Overcast,0,2014-02-09 00:53:00
8:53 PM,17.1,9.0,71,30.25,6.0,SSW,5.8,-,0.00,Snow,Light Snow,210,2014-02-09 01:53:00
9:51 PM,15.8,10.4,79,30.20,2.5,South,5.8,-,0.00,Snow,Light Snow,170,2014-02-09 02:51:00
9:53 PM,16.0,10.9,81,30.23,2.5,South,5.8,-,0.00,Snow,Light Snow,180,2014-02-09 02:53:00
10:05 PM,15.8,12.2,86,30.19,1.5,SSE,5.8,-,0.00,Snow,Light Snow,160,2014-02-09 03:05:00
10:24 PM,15.8,12.2,86,30.18,2.5,SSE,6.9,-,0.00,Snow,Light Snow,150,2014-02-09 03:24:00
10:31 PM,15.8,12.2,86,30.19,4.0,SSE,5.8,-,0.00,Snow,Light Snow,160,2014-02-09 03:31:00
10:53 PM,16.0,10.9,81,30.21,4.0,SSE,4.6,-,0.00,Snow,Light Snow,160,2014-02-09 03:53:00
11:53 PM,17.1,12.0,81,30.20,5.0,SE,5.8,-,0.00,Snow,Light Snow,140,2014-02-09 04:53:00